{"data":{"norad_id":61563,"intl_designator":"2024-185M","name":"QIANFAN-30","alt_names":[],"object_type":"PAYLOAD","status":"ACTIVE","operator":null,"country":"PRC","launch_date":"2024-10-15","launch_site_code":"TAISC","launch_vehicle":null,"mission":null,"orbit_class":"UNKNOWN","rcs_meters":null,"size_class":null,"mass_kg":null,"dimensions":null,"purposes":[],"wikipedia_slug":null,"has_3d_model":false,"image_url":null,"decayed_at":null,"tle_current":{"epoch":"2026-09-22T20:59:48.896736Z","epoch_age_seconds":92264,"freshness":"FRESH","line1":"1 61563U 24185M   26265.87487149  .00000133  00000+0  19014-3 0  9994","line2":"2 61563  88.9827  51.5764 0005927 301.2491  58.8078 13.50076876106406","mean_motion":13.50076876,"eccentricity":0.0005927,"inclination_deg":88.9827,"raan_deg":51.5764,"arg_perigee_deg":301.2491,"mean_anomaly_deg":58.8078,"bstar":0.00019014,"rev_number":10640,"period_min":106.66059285945,"perigee_km":1067.5600121487,"apogee_km":1076.3913757361,"semimajor_km":7450.1126939424,"source":"CELESTRAK","updated_at":"2026-09-23T09:00:20.906004Z"}}}